Weather History for LEBA - October, 2013

Change the Weather History Date:

Monday, October 28, 2013

  Actual Average Record
Temperature  
Mean Temperature 68 °F -  
Max Temperature 80 °F - - ()
Min Temperature 55 °F - - ()
Cooling Degree Days 2    
Growing Degree Days 18 (Base 50)    
Moisture  
Dew Point 56 °F    
Average Humidity 66    
Maximum Humidity 94    
Minimum Humidity 36    
Precipitation  
Precipitation 0.00 in 0.11 in - ()
Sea Level Pressure  
Sea Level Pressure 30.07 in    
Wind  
Wind Speed 2 mph ()    
Max Wind Speed 7 mph    
Max Gust Speed -    
Visibility 16.0 miles    
Events      
T = Trace of Precipitation, MM = Missing Value Source: Averaged Metar Reports

Daily Weather History Graph

Daily Weather History Graph

Search for Another Location

Airport or City:

Trip Planner

Search our weather history database for the weather conditions in past years. The results will help you decide how hot, cold, wet, or windy it might be!

Date:

Astronomy

Oct. 28, 2013 Rise Set
Actual Time 7:40 AM CET 6:25 PM CET
Civil Twilight 7:13 AM CET 6:52 PM CET
Nautical Twilight 6:42 AM CET 7:22 PM CET
Astronomical Twilight 6:12 AM CET 7:53 PM CET
Moon 1:26 AM CET (10/28) 2:53 PM CET (10/28)
Length of Visible Light 11h 38m
Length of Day
10h 44m
Last Quarter, 36% of the Moon is Illuminated
Oct 28
Last Quarter
Nov 3
New
Nov 10
First Quarter
Nov 17
Full
Nov 25
Last Quarter

Hourly Weather History & Observations

Time (CET) Temp. Heat Index Dew Point Humidity Pressure Visibility Wind Dir Wind Speed Gust Speed Precip Events Conditions
1:00 AM 58 °F - 55 °F 88% 30.16 in - Calm Calm - -  
7:00 AM 55 °F - 54 °F 93% 30.10 in 16 mi East 4.6 mph - -  
7:00 AM 55.4 °F - 53.6 °F 94% 30.09 in - East 3.5 mph - N/A   Clear
8:00 AM 55.4 °F - 53.6 °F 94% 30.09 in - East 2.3 mph - N/A   Clear
9:00 AM 59.0 °F - 55.4 °F 88% 30.12 in - East 3.5 mph - N/A   Clear
10:00 AM 62.6 °F - 57.2 °F 82% 30.12 in - East 5.8 mph - N/A   Clear
11:00 AM 68.0 °F - 57.2 °F 68% 30.12 in - East 5.8 mph - N/A   Clear
12:00 PM 71.6 °F - 57.2 °F 60% 30.09 in - East 5.8 mph - N/A   Clear
1:00 PM 78 °F - 56 °F 36% 30.08 in 16 mi Calm Calm - -   Clear
1:00 PM 75.2 °F - 55.4 °F 50% 30.09 in - Calm Calm - N/A   Clear
2:00 PM 78.8 °F - 57.2 °F 47% 30.04 in - SW 1.2 mph - N/A   Clear
3:00 PM 80.6 °F 81.1 °F 59.0 °F 48% 30.04 in - Variable 2.3 mph - N/A   Clear
4:00 PM 80.6 °F 80.8 °F 57.2 °F 45% 30.04 in - WSW 6.9 mph - N/A   Clear
5:00 PM 78.8 °F - 53.6 °F 42% 30.04 in - NW 6.9 mph - N/A   Clear
6:00 PM 75.2 °F - 57.2 °F 53% 30.04 in - Calm Calm - N/A   Clear
7:00 PM 69.8 °F - 57.2 °F 64% 30.01 in - West 2.3 mph - N/A   Clear
8:00 PM 66.2 °F - 53.6 °F 64% 30.04 in - Calm Calm - N/A   Clear
9:00 PM 62.6 °F - 55.4 °F 77% 30.04 in - WNW 3.5 mph - N/A   Clear
10:00 PM 68.0 °F - 50.0 °F 52% 30.06 in - NW 2.3 mph - N/A   Clear